Regional Weather Roundup
Issued by NWS Sterling, VA

Home | Current Version | Previous Version | Graphics & Text | Print | Product List | Glossary On
Versions: 1 2 3 4 5 6 7 8 9 10 11 12 13 14 15 16 17 18 19 20 21 22 23 24 25 26 27 28 29
000
ASUS41 KLWX 250210
RWRLWX

REGIONAL WEATHER ROUNDUP
NATIONAL WEATHER SERVICE BALTIMORE MD/WASHINGTON DC
1000 PM EDT FRI OCT 24 2014

Note: "FAIR" indicates few or no clouds below 12,000 feet
with no significant weather and/or obstructions to visibility.
 TC=TEMPERATURE CELSIUS

 * =Non NWS site. Station does not report precipitation (e.g. rain,
    snow, etc.), thunder, or fog.

DCZ001-MDZ009-015-VAZ040>042-051-053>054-250300-
WASHINGTON METRO

CITY           SKY/WX    TMP DP  RH WIND       PRES   REMARKS
WASHINGTON NAT MOCLDY    63  35  35 NW14      29.95R
DULLES         MOCLDY    50  36  58 N3        29.96R
ANDREWS AFB    PTCLDY    58  37  44 NW13      29.94R
FT BELVOIR     PTCLDY    50  40  68 W5        29.95R
QUANTICO       PTCLDY    50  43  77 NW6       29.96R
COLLEGE PARK*  PTCLDY    50  43  76 CALM      29.94S
LEESBURG*      MOCLDY    57  39  51 N7        29.97S
MANASSAS*      PTCLDY    48  43  81 CALM      29.96R
GAITHERSBURG*  MOCLDY    52  36  54 NW6       29.99S

$$

MDZ006>007-011-014-250300-
BALTIMORE METRO

CITY           SKY/WX    TMP DP  RH WIND       PRES   REMARKS
BWI AIRPORT    PTCLDY    56  36  47 NW7       29.93R
MD SCIENCE CTR   N/A     59  36  42 MISG      29.93R
MARTIN STATE   CLEAR     57  39  51 CALM      29.93R
ANNAPOLIS      CLEAR     59  36  42 NW8       29.92S
FORT MEADE*    PTCLDY    50  39  66 CALM      29.96R

$$

MDZ012-015-019>023-250300-
MARYLAND EASTERN SHORE

CITY           SKY/WX    TMP DP  RH WIND       PRES   REMARKS
OCEAN CITY     CLEAR     55  44  66 W6        29.90R
SALISBURY      CLEAR     56  45  66 W3        29.91S
BAY BRIDGE AP*   N/A     59  36  41 NW9       29.93S
CAMBRIDGE*     CLEAR     50  43  76 CALM      29.92S

$$

MDZ017>025-250300-
SOUTHERN MARYLAND

CITY           SKY/WX    TMP DP  RH WIND       PRES   REMARKS
PATUXENT RIVER MOCLDY    56  40  55 NW9       29.93S
ST INIGOES     PTCLDY    53  42  66 VRB3      29.93R
LEONARDTOWN*   PTCLDY    48  39  71 CALM      29.96R

$$

MDZ003>005-250300-
NORTH CENTRAL MARYLAND

CITY           SKY/WX    TMP DP  RH WIND       PRES   REMARKS
FREDERICK*     MOCLDY    59  34  38 W5        29.98S
HAGERSTOWN APT PTCLDY    52  38  58 NW6       29.98R
WESTMINSTER*   MOCLDY    55  37  50 W7        29.95R

$$

MDZ501>502-250300-
WESTERN MARYLAND

CITY           SKY/WX    TMP DP  RH WIND       PRES   REMARKS
OAKLAND*       PTCLDY    45  36  70 W9        30.03S
CUMBERLAND*    PTCLDY    46  41  81 N5        30.04S

$$

VAZ025>031-250300-
SHENANDOAH VALLEY

CITY           SKY/WX    TMP DP  RH WIND       PRES   REMARKS
WINCHESTER*    PTCLDY    52  32  46 CALM      29.99R
FRONT ROYAL*   FAIR      46  36  66 CALM      29.98R
LURAY*         FAIR      46  41  81 CALM      29.99R
NEW MARKET*    FAIR      40  37  87 CALM      29.99R
STAUNTON*      CLEAR     44  38  78 CALM      30.01R
WAYNESBORO*    FAIR      46  38  76 CALM      29.99R

$$

WVZ021-048>050-054>055-250300-
EASTERN WEST VIRGINIA PANHANDLE

CITY           SKY/WX    TMP DP  RH WIND       PRES   REMARKS
MARTINSBURG    PTCLDY    55  35  47 CALM      29.98R
PETERSBURG*    CLEAR     42  35  77 CALM      30.03R

$$

VAZ036>039-050-250300-
CENTRAL FOOTHILLS

CITY           SKY/WX    TMP DP  RH WIND       PRES   REMARKS
CHARLOTTESVILL PTCLDY    50  42  74 W5        29.96R
CULPEPER*      PTCLDY    43  41  93 CALM      29.97S
ORANGE*        CLEAR     43  41  93 CALM      29.98R
GORDONSVILLE*  FAIR      44  42  93 CALM      29.96R
WARRENTON*     FAIR      42  42 100 CALM      29.95S

$$

VAZ055>057-250300-
NORTH AND CENTRAL PIEDMONT

CITY           SKY/WX    TMP DP  RH WIND       PRES   REMARKS
FREDERICKSBRG* CLEAR     48  48 100 CALM      29.95R
STAFFORD*      CLEAR     42  42 100 CALM      30.00R

$$

NCZ024-NYZ072-PAZ021-071-VAZ022-071-250300-
OTHER REGIONAL OBSERVATIONS

CITY           SKY/WX    TMP DP  RH WIND       PRES   REMARKS
NEW YORK CITY  CLEAR     58  43  57 NW7       29.85R
PHILADELPHIA   MOCLDY    61  37  41 W6        29.87S
PITTSBURGH     CLEAR     48  38  68 CALM      30.01S
ROANOKE        CLEAR     57  34  41 NW14      30.03R
RICHMOND       PTCLDY    52  44  74 CALM      29.95S
RALEIGH        PTCLDY    50  47  89 CALM      30.00R

$$

ANZ530>537-250300-
MARINE OBSERVATIONS

STATION/POSITION TIME  TEMP    WIND        PRES
                       AIR SEA DIR/SP/G
                 (UTC) (F)     (DEG/KT/KT) (MB)
THOMAS PT LIGHT  0200   59 61  300/  9/ 10 1014.3R
BALT KEY BRIDGE  0200   59     270/ 10/ 12 1013.1R
COVE POINT       0200   60     330/  9/ 12 1013.3R
LEWISETTA        0200   59 60  290/  4/  5 1013.4R
SOLOMONS ISLAND  0200      63                N/A
PINEY POINT      0200          340/ 12/ 13   N/A

$$




USA.gov is the U.S. government's official web portal to all federal, state and local government web resources and services.